Regional Weather Roundup
Issued by NWS Burlington, VT

Home | Current Version | Previous Version | Text Only | Print | Product List | Glossary On
Versions: 1 2 3 4 5 6 7 8 9 10 11 12 13 14 15 16 17 18 19 20 21 22 23 24 25 26 27 28 29 30 31 32 33 34 35 36 37 38 39 40 41 42 43 44 45 46 47 48 49 50
000
ASUS41 KBTV 230330
RWRBTV
VERMONT REGIONAL WEATHER ROUNDUP
NATIONAL WEATHER SERVICE BURLINGTON VT
1000 PM EST MON DEC 22 2014

NOTE: "FAIR" INDICATES FEW OR NO CLOUDS BELOW 12,000 FEET WITH NO
SIGNIFICANT WEATHER AND/OR OBSTRUCTIONS TO VISIBILITY.

* THESE REPORTS ARE NOT UNDER NWS QUALITY CONTROL AND/OR DO NOT
  REPORT WEATHER SUCH AS PRECIPITATION AND FOG.

VTZ001>019-230400-
_____VERMONT_____


CITY           SKY/WX    TMP DP  RH WIND       PRES   REMARKS
BURLINGTON     CLOUDY    26  20  77 N3        30.28F FOG
MONTPELIER     LGT SNOW  32  29  88 S6        30.30F FOG
MORRISVILLE    FLURRIES  31  27  85 CALM      30.30S
ST. JOHNSBURY*   N/A     31  27  85 MISG      30.29S
LYNDONVILLE*   CLOUDY    30  26  83 CALM      30.29F
MIDDLEBURY*    CLOUDY    28  28  99 CALM      30.26S FOG
RUTLAND*       CLOUDY    34  30  86 S8        30.26S
SPRINGFIELD    CLOUDY    31  31 100 CALM      30.31S FOG
HIGHGATE*      CLOUDY    21  18  89 CALM      30.28F
NEWPORT*       CLOUDY    28  26  91 CALM      30.29S
BENNINGTON     CLOUDY    38  32  79 SE9       30.23S
GALLUP MILLS*    N/A     28 N/A N/A MISG        N/A
UNION VILLAGE*   N/A     32 N/A N/A MISG        N/A
MT. MANSFIELD*   N/A     25 N/A N/A CALM        N/A

_____LAKE CHAMPLAIN_____


CITY           SKY/WX    TMP DP  RH WIND       PRES   REMARKS
BURTON ISLAND*   N/A     25  23  93 NE1         N/A
COLCHESTER RF*   N/A     27  25  93 NE6         N/A

$$

NYZ007-026>031-035-052-083-230400-
_____NORTHERN NEW YORK_____


CITY           SKY/WX    TMP DP  RH WIND       PRES   REMARKS
PLATTSBURGH    CLOUDY    22  18  85 N3        30.29F
SARANAC LAKE   PTCLDY    21  20  96 N3        30.15F
MASSENA        MOCLDY    20  16  84 E14       30.25F WCI   7
OGDENSBURG*    CLOUDY    23  21  93 E6        30.19F
POTSDAM*       CLOUDY    21  21 100 E6        30.20F
STARK FALLS*     N/A     28 N/A N/A SE3         N/A
WATERTOWN      CLOUDY    32  25  75 E6        30.14F
FT DRUM        CLOUDY    36  28  75 SE13      30.12F
ALBANY         CLOUDY    34  27  75 CALM      30.24F
GLENS FALLS    CLOUDY    32  27  81 NE3       30.24F

$$
NHZ002-005-011-230400-
_____NEW HAMPSHIRE_____


CITY           SKY/WX    TMP DP  RH WIND       PRES   REMARKS
LEBANON        CLOUDY    34  30  85 CALM      30.30S
KEENE          CLOUDY    36  32  87 CALM      30.29S
MT WASHINGTON  FOG       16  16 100 SE18G24     N/A  VSB 1/16WCI  -1
PLYMOUTH       MIX PCPN  32  32 100 CALM      30.33S
WHITEFIELD     CLOUDY    32  26  78 E5        30.28F

$$

_____REGIONAL QUEBEC LOCATIONS_____


CITY           SKY/WX    TMP DP  RH WIND       PRES   REMARKS
MONTREAL       CLOUDY    19  16  86 N10       30.31F WCI   8
QUEBEC CITY    CLOUDY    21  18  86 NE3       30.37
SHERBROOKE     CLOUDY    28  27  93 NE3       30.30S

_____REGIONAL ONTARIO LOCATIONS_____


CITY           SKY/WX    TMP DP  RH WIND       PRES   REMARKS
OTTAWA         CLOUDY    19  18  93 NE9       30.22F

______KEY______
VSB  - VISIBILITY IN MILES
WCI  - WIND CHILL INDEX
HX   - HEAT INDEX
$$



USA.gov is the U.S. government's official web portal to all federal, state and local government web resources and services.